[[{"header":{"parameterUnit":"m.s-1","parameterCategory":1,"la1":30.2991,"la2":30.254,"lo1":-89.0895,"lo2":-89.0444,"dy":0.0017,"dx":0.0017,"nx":28,"ny":28,"refTime":"2023-11-01T03:00:00:Z","depth":0,"parameterNumber":2,"parameterNumberName":"U-component_of_WINDS"},"data":[0,0,0,0,0,0,0,0,0,0,0,0,0,0,0,0,0,0,0,0,0,0,0,0,0,0,0,0,0,0,0,0,0,0,0,0,0,0,0,0,0,0,0,0,0,0,0,0,0,0,0,0,0,0,0,0,0,0,2.0163,2.0163,0,2.0135,2.0134,2.0134,2.0107,2.0106,2.0106,2.0106,2.0074,2.0073,2.0073,0,0,0,0,0,0,0,0,0,0,0,0,0,2.0194,2.0194,2.0164,2.0163,2.0163,2.0135,2.0134,2.0134,2.0107,2.0106,2.0106,2.0106,2.0074,2.0073,2.0073,0,0,0,0,0,0,0,0,0,0,0,0,0,2.0175,2.0194,2.0164,2.0146,2.0144,2.0135,2.0134,2.0134,2.0107,2.0106,2.0106,2.0105,2.0074,2.0073,2.0073,2.0078,0,0,2.007,2.007,0,0,0,0,0,0,0,0,2.0176,2.0174,2.0149,2.0147,2.0145,2.0124,2.0133,2.0115,2.0107,2.0121,2.0106,2.0105,2.0091,2.0088,2.0084,2.0076,2.0075,2.007,2.007,2.0069,2.0069,0,0,0,0,0,0,0,2.0177,2.0175,2.0152,2.0149,2.0146,2.0139,2.0136,2.013,2.0109,2.012,2.0118,2.0115,2.0089,2.0085,2.0083,2.0074,2.007,2.0069,2.0069,2.0068,2.007,2.0071,0,0,0,0,0,0,2.0182,2.0176,2.0153,2.0151,2.016,2.0139,2.0135,2.0131,2.0109,2.0105,2.0115,2.0114,2.0087,2.0084,2.0082,2.0087,2.0069,2.0068,2.0068,2.007,2.007,2.0071,0,0,0,0,0,0,2.0182,2.018,2.0154,2.0163,2.0159,2.0139,2.0135,2.0131,2.0126,2.0106,2.0102,2.0114,2.0086,2.0083,2.0079,2.0085,2.0068,2.0067,2.0069,2.007,2.0071,2.0096,0,0,0,0,0,0,2.0183,2.018,2.0182,2.0163,2.0159,2.0152,2.0135,2.0131,2.0125,2.0123,2.0104,2.01,2.0085,2.0081,2.0079,2.0084,2.0067,2.0068,2.0069,2.007,2.0094,2.0098,2.01,0,0,0,0,0,2.0185,2.0189,2.0182,2.0179,2.0161,2.0153,2.015,2.0134,2.0126,2.0127,2.0114,2.0101,2.0085,2.0081,2.0078,2.0083,2.0068,2.0069,2.007,2.0093,2.0097,2.01,0,0,0,0,0,0,2.0207,2.0186,2.0178,2.0177,2.0167,2.0148,2.0149,2.0138,2.0129,2.0127,2.0107,2.0103,2.0102,2.0092,2.0087,2.0087,2.0075,2.0076,2.0093,2.0097,2.0099,2.0101,2.0066,0,0,0,0,0,2.0213,2.0208,2.019,2.0191,2.0187,2.0169,2.0165,2.0154,2.0142,2.0137,2.0124,2.0112,2.0105,2.0101,2.0093,2.0094,2.0089,2.0096,2.0099,2.0101,2.0102,2.0102,2.0105,2.0075,2.0075,2.0075,0,0,2.0223,2.0211,2.0209,2.0195,2.0186,2.0182,2.0165,2.0161,2.0158,2.0136,2.0132,2.0122,2.0108,2.0107,2.0106,2.0099,2.011,2.0103,2.0105,2.0104,2.0104,2.0107,2.0109,2.0076,2.0076,2.0075,0,0,2.0239,2.023,2.023,2.0221,2.0208,2.0197,2.0197,2.0181,2.0174,2.017,2.0154,2.015,2.0137,2.0128,2.0122,2.0138,2.0125,2.0136,2.015,2.0151,2.0154,2.0156,2.0161,2.0163,2.0137,2.0137,2.0137,0,2.0252,2.0246,2.0231,2.0228,2.0223,2.0205,2.0205,2.0198,2.0182,2.0179,2.0172,2.0158,2.0147,2.0144,2.0148,2.0144,2.0144,2.0137,2.0155,2.0156,2.0158,2.0163,2.0165,2.0138,2.0138,2.0138,2.0138,0,2.0264,2.0259,2.0261,2.0248,2.0243,2.0242,2.0227,2.0224,2.0214,2.0203,2.02,2.0187,2.0177,2.0176,2.0165,2.0172,2.0168,2.0159,2.0145,2.0163,2.0167,2.0169,2.014,2.014,2.014,2.0139,0,0,2.029,2.0271,2.0272,2.0267,2.0252,2.0249,2.0247,2.0238,2.0236,2.0227,2.0225,2.0217,2.0208,2.0201,2.019,2.0191,2.0205,2.0181,2.0181,2.0185,2.0211,2.0218,2.0221,2.0197,2.0198,2.0198,2.0212,0,2.0303,2.03,2.0287,2.0287,2.0284,2.0268,2.0267,2.0258,2.0249,2.0245,2.0235,2.0229,2.0218,2.0214,2.0215,2.0203,2.021,2.0202,2.0195,2.0195,2.0197,2.0223,2.0229,2.0243,2.0214,2.0214,2.0215,0,2.0317,2.031,2.031,2.0298,2.0296,2.0295,2.0287,2.0283,2.0273,2.0266,2.026,2.0249,2.0247,2.0236,2.0233,2.0228,2.0225,2.0219,2.0219,2.0216,2.0204,2.022,2.0247,2.0249,2.0217,2.0217,2.0217,0,2.0336,2.0327,2.0326,2.0322,2.0308,2.0307,2.0301,2.0291,2.0287,2.028,2.0278,2.027,2.0266,2.0261,2.0247,2.0241,2.0246,2.0234,2.024,2.024,2.024,2.024,2.0266,2.024,2.024,2.024,2.024,0,2.0351,2.0351,2.0335,2.0334,2.0335,2.0321,2.0322,2.0314,2.0306,2.0304,2.029,2.0288,2.0272,2.0268,2.0258,2.0257,2.0255,2.025,2.0247,2.025,2.0251,2.0246,2.0244,2.0241,2.024,2.024,2.024,0,2.0371,2.036,2.0358,2.0346,2.0342,2.0343,2.0332,2.0331,2.0323,2.032,2.0319,2.0305,2.03,2.0287,2.0278,2.0272,2.0273,2.0269,2.0277,2.0275,2.0281,2.028,2.0304,2.0307,2.028,2.0281,2.0281,0,2.038,2.0381,2.0369,2.0367,2.0361,2.0358,2.0355,2.0342,2.0339,2.0329,2.0329,2.0324,2.0319,2.0312,2.0301,2.0294,2.0289,2.0298,2.0288,2.0291,2.0288,2.0288,2.0288,2.0299,2.03,2.03,2.03,0,2.0398,2.0393,2.0389,2.0384,2.038,2.0375,2.0369,2.0368,2.0354,2.0352,2.0347,2.0343,2.0336,2.033,2.0323,2.0316,2.0306,2.0304,2.0305,2.0308,2.0312,2.0309,2.0282,2.0303,2.0303,2.0303,2.0302,2.0302,2.0413,2.0412,2.0405,2.0401,2.0395,2.0391,2.0389,2.0382,2.0378,2.0371,2.0365,2.0361,2.0353,2.0342,2.0337,2.0334,2.0328,2.0329,2.033,2.033,2.0331,2.0314,2.0332,2.0332,2.0332,2.0332,2.0332,0,2.0429,2.0424,2.0421,2.0414,2.0411,2.0403,2.0397,2.0395,2.0392,2.0386,2.0382,2.0377,2.0373,2.0363,2.0357,2.0357,2.0352,2.0356,2.0355,2.0353,2.0337,2.0336,2.036,2.036,2.036,2.036,2.036,2.036,2.0437,2.0437,2.0432,2.0429,2.0424,2.0421,2.0418,2.0413,2.0408,2.0404,2.0401,2.0395,2.0387,2.0382,2.0377,2.0374,2.0373,2.0378,2.0373,2.0357,2.0355,2.0352,2.0351,2.0378,2.0378,2.039,2.039,2.039]},{"header":{"parameterUnit":"m.s-1","parameterCategory":1,"la1":30.2991,"la2":30.254,"lo1":-89.0895,"lo2":-89.0444,"dy":0.0017,"dx":0.0017,"nx":28,"ny":28,"refTime":"2023-11-01T03:00:00:Z","depth":0,"parameterNumber":3,"parameterNumberName":"V-component_of_WINDS"},"data":[0,0,0,0,0,0,0,0,0,0,0,0,0,0,0,0,0,0,0,0,0,0,0,0,0,0,0,0,0,0,0,0,0,0,0,0,0,0,0,0,0,0,0,0,0,0,0,0,0,0,0,0,0,0,0,0,0,0,-8.6137,-8.6139,0,-8.6368,-8.6371,-8.6374,-8.6264,-8.6258,-8.6252,-8.6247,-8.6481,-8.6492,-8.6504,0,0,0,0,0,0,0,0,0,0,0,0,0,-8.5595,-8.5606,-8.6136,-8.6139,-8.6142,-8.6368,-8.6371,-8.6374,-8.6265,-8.6258,-8.6251,-8.6244,-8.6477,-8.6491,-8.6505,0,0,0,0,0,0,0,0,0,0,0,0,0,-8.5829,-8.5609,-8.6136,-8.6115,-8.6115,-8.6367,-8.6371,-8.6375,-8.6267,-8.6258,-8.6249,-8.6241,-8.6472,-8.6489,-8.6507,-8.6792,0,0,-8.656,-8.6568,0,0,0,0,0,0,0,0,-8.5816,-8.5849,-8.6115,-8.6117,-8.6118,-8.6278,-8.6266,-8.6515,-8.6269,-8.6209,-8.6247,-8.6236,-8.642,-8.6441,-8.6504,-8.6803,-8.6813,-8.6562,-8.6573,-8.658,-8.6585,0,0,0,0,0,0,0,-8.58,-8.5839,-8.6228,-8.6119,-8.6121,-8.6093,-8.6116,-8.6313,-8.6361,-8.6214,-8.6206,-8.6235,-8.6419,-8.6488,-8.6509,-8.6816,-8.6561,-8.6577,-8.6588,-8.6595,-8.7361,-8.737,0,0,0,0,0,0,-8.5785,-8.5826,-8.6221,-8.6235,-8.5942,-8.611,-8.6136,-8.6236,-8.6359,-8.6369,-8.6243,-8.6229,-8.6462,-8.6489,-8.6517,-8.686,-8.658,-8.6596,-8.6606,-8.7351,-8.7363,-8.7373,0,0,0,0,0,0,-8.5774,-8.5821,-8.6211,-8.6029,-8.6076,-8.6129,-8.6241,-8.6245,-8.6313,-8.6381,-8.6388,-8.6304,-8.6456,-8.6492,-8.6725,-8.6866,-8.6604,-8.662,-8.7339,-8.7355,-8.7368,-8.7547,0,0,0,0,0,0,-8.5759,-8.5818,-8.5927,-8.6032,-8.6086,-8.6417,-8.625,-8.6256,-8.6344,-8.6329,-8.644,-8.645,-8.6452,-8.6699,-8.6742,-8.6886,-8.6634,-8.7327,-8.7346,-8.7363,-8.7529,-8.7566,-8.7598,0,0,0,0,0,-8.574,-8.5968,-8.5934,-8.5982,-8.6225,-8.6425,-8.6456,-8.6455,-8.6356,-8.6466,-8.651,-8.6447,-8.6844,-8.6724,-8.6771,-8.6922,-8.7318,-8.7341,-8.7362,-8.7514,-8.7559,-8.7598,0,0,0,0,0,0,-8.5877,-8.5981,-8.5944,-8.6213,-8.6312,-8.6406,-8.6545,-8.6503,-8.663,-8.661,-8.6601,-8.6628,-8.6869,-8.6918,-8.6783,-8.7205,-8.7065,-8.7098,-8.7164,-8.7208,-8.7242,-8.7226,-8.6649,0,0,0,0,0,-8.5939,-8.6094,-8.6176,-8.6405,-8.6456,-8.6493,-8.658,-8.657,-8.6671,-8.6712,-8.6772,-8.6872,-8.7019,-8.7116,-8.7255,-8.7535,-8.7558,-8.7662,-8.7697,-8.7725,-8.7754,-8.7907,-8.7955,-8.7446,-8.7446,-8.7445,0,0,-8.6068,-8.6143,-8.6242,-8.6435,-8.651,-8.667,-8.6528,-8.6704,-8.6823,-8.6738,-8.6962,-8.701,-8.712,-8.7379,-8.7495,-8.7427,-8.7899,-8.7753,-8.7775,-8.7789,-8.7935,-8.7983,-8.8026,-8.7461,-8.7458,-8.7456,0,0,-8.6385,-8.6458,-8.6657,-8.6736,-8.6852,-8.6875,-8.6923,-8.7025,-8.7054,-8.7279,-8.7219,-8.736,-8.7613,-8.7695,-8.7769,-8.8118,-8.8065,-8.8163,-8.8345,-8.8494,-8.8534,-8.857,-8.8696,-8.8741,-8.8191,-8.8192,-8.8192,0,-8.653,-8.6771,-8.6765,-8.6946,-8.7033,-8.6965,-8.7167,-8.7243,-8.7398,-8.7459,-8.738,-8.7698,-8.7767,-8.8044,-8.813,-8.8192,-8.8247,-8.8151,-8.8529,-8.8565,-8.8598,-8.8718,-8.8765,-8.8203,-8.8202,-8.8201,-8.82,0,-8.6944,-8.7112,-8.7259,-8.7412,-8.7515,-8.7706,-8.7728,-8.7833,-8.7815,-8.7846,-8.8076,-8.8157,-8.8311,-8.8376,-8.8359,-8.8652,-8.8606,-8.8529,-8.8389,-8.8658,-8.877,-8.8816,-8.8219,-8.8215,-8.8212,-8.8209,0,0,-8.7355,-8.7503,-8.7558,-8.7627,-8.775,-8.7879,-8.8066,-8.8219,-8.831,-8.8419,-8.8576,-8.8792,-8.8723,-8.8807,-8.8798,-8.893,-8.9203,-8.8836,-8.8839,-8.8903,-8.9531,-8.959,-8.9643,-8.9168,-8.9176,-8.9183,-8.9523,0,-8.7682,-8.8012,-8.8012,-8.8316,-8.8471,-8.8409,-8.8572,-8.8665,-8.8699,-8.8835,-8.8871,-8.9026,-8.8921,-8.8972,-8.9099,-8.9143,-8.9329,-8.9118,-8.9314,-8.9321,-8.929,-8.9702,-8.9764,-9.0081,-8.9566,-8.9574,-8.9579,0,-8.8107,-8.8233,-8.8553,-8.8655,-8.872,-8.8867,-8.9008,-8.9138,-8.9242,-8.9257,-8.9353,-8.9325,-8.9515,-8.9368,-8.963,-8.9487,-8.9567,-8.96,-8.9612,-8.9632,-8.9468,-8.9734,-9.0181,-9.023,-8.9648,-8.9643,-8.9638,0,-8.8377,-8.8625,-8.8849,-8.891,-8.9034,-8.9139,-8.9195,-8.9291,-8.9383,-8.9505,-8.9565,-8.9707,-8.9786,-8.9896,-8.9907,-8.9799,-9.0172,-9.0025,-9.019,-9.019,-9.0272,-9.0267,-9.0741,-9.0322,-9.0321,-9.032,-9.0319,0,-8.8743,-8.8942,-8.8972,-8.911,-8.9331,-8.9329,-8.9547,-8.9594,-8.968,-8.9825,-8.9779,-8.9916,-8.9921,-9.0061,-9.007,-9.0287,-9.0322,-9.034,-9.034,-9.0345,-9.0343,-9.0398,-9.0377,-9.0332,-9.033,-9.0327,-9.0325,0,-8.9082,-8.911,-8.9351,-8.9449,-8.9478,-8.9637,-8.972,-8.9852,-8.9881,-9.0066,-9.0109,-9.0155,-9.0318,-9.0339,-9.0529,-9.0535,-9.0796,-9.0772,-9.0762,-9.0759,-9.0923,-9.0908,-9.145,-9.1521,-9.1054,-9.1059,-9.1062,0,-8.9315,-8.9467,-8.9582,-8.9677,-8.9739,-8.9892,-8.9987,-8.999,-9.009,-9.0221,-9.0337,-9.0496,-9.0623,-9.0886,-9.0936,-9.1081,-9.1062,-9.1241,-9.1083,-9.1084,-9.1066,-9.1058,-9.1074,-9.1272,-9.1277,-9.1282,-9.1285,0,-8.9725,-8.9732,-8.9871,-9.0016,-9.013,-9.0244,-9.035,-9.043,-9.0447,-9.0562,-9.0729,-9.0828,-9.1023,-9.1181,-9.1325,-9.1381,-9.1338,-9.1334,-9.138,-9.1388,-9.1377,-9.1387,-9.0847,-9.1322,-9.1318,-9.1316,-9.1314,-9.1312,-9.0019,-9.0152,-9.0254,-9.0411,-9.0492,-9.0593,-9.0722,-9.0768,-9.0908,-9.1068,-9.1061,-9.1245,-9.1345,-9.1534,-9.1601,-9.1745,-9.1685,-9.1752,-9.1769,-9.1786,-9.1803,-9.1353,-9.177,-9.1769,-9.1768,-9.1767,-9.1767,0,-9.0429,-9.0492,-9.0636,-9.0788,-9.0911,-9.0859,-9.0975,-9.1081,-9.1244,-9.1342,-9.1469,-9.1661,-9.1815,-9.1877,-9.2028,-9.2131,-9.2115,-9.217,-9.2164,-9.2178,-9.1847,-9.1793,-9.2181,-9.2181,-9.2181,-9.2181,-9.2181,-9.2181,-9.0657,-9.0879,-9.0898,-9.116,-9.1221,-9.1403,-9.1473,-9.1566,-9.1645,-9.1862,-9.199,-9.203,-9.2114,-9.227,-9.2409,-9.2423,-9.2481,-9.2547,-9.2553,-9.2243,-9.2201,-9.2161,-9.211,-9.2559,-9.256,-9.2872,-9.2875,-9.2877]}]]